DW1564 Weather Reports


time (UTC)temp
C
wind
direction
speed
KPH
gust
KPH
rain 1hr
cm
rain 24hr
cm
rain mn
cm
humidity
%
barometer
mb
20260906230051 21 105 0.0 8.0 0.00 0.33 0.33 54 1001.2
20260906224553 21 78 0.0 17.7 0.00 0.33 0.33 54 1001.2
20260906223049 21 82 3.2 17.7 0.00 0.33 0.33 55 1001.3
20260906221549 21 71 0.0 12.9 0.00 0.33 0.33 56 1001.4
20260906220047 20 78 0.0 4.8 0.00 0.33 0.33 57 1001.6
20260906214545 21 76 1.6 16.1 0.00 0.33 0.33 56 1001.6
20260906213032 21 90 1.6 29.0 0.00 0.33 0.33 54 1001.8
20260906211531 21 70 0.0 16.1 0.00 0.33 0.33 52 1002.0
20260906210031 22 73 3.2 24.1 0.00 0.33 0.33 51 1001.8
20260906204530 22 82 8.0 29.0 0.00 0.33 0.33 51 1001.9
20260906203028 22 70 1.6 20.9 0.00 0.33 0.33 51 1001.9
20260906201527 22 96 4.8 24.1 0.00 0.33 0.33 50 1002.0
20260906200025 22 79 3.2 24.1 0.00 0.33 0.33 48 1002.0
20260906194524 22 71 4.8 20.9 0.00 0.33 0.33 49 1002.0
20260906193010 22 93 8.0 27.4 0.00 0.33 0.33 47 1002.3
20260906191509 22 110 0.0 3.2 0.00 0.33 0.33 43 1002.3
20260906190006 22 92 3.2 17.7 0.00 0.33 0.33 42 1002.4
20260906184508 22 90 0.0 1.6 0.00 0.33 0.33 41 1002.7
20260906183003 22 88 0.0 9.7 0.00 0.33 0.33 43 1002.9
20260906181602 22 99 0.0 17.7 0.00 0.33 0.33 44 1003.0
20260906180106 21 102 0.0 14.5 0.00 0.33 0.33 46 1003.0
20260906174605 21 104 1.6 12.9 0.00 0.33 0.33 46 1003.4
20260906173046 21 101 3.2 20.9 0.00 0.33 0.33 46 1003.7
20260906171545 21 105 1.6 12.9 0.00 0.33 0.33 48 1004.1
20260906170043 21 105 0.0 11.3 0.00 0.33 0.33 48 1004.3
20260906164543 21 80 0.0 11.3 0.00 0.33 0.33 50 1004.3
20260906163040 20 78 1.6 16.1 0.00 0.33 0.33 52 1004.4
20260906161543 20 78 0.0 12.9 0.00 0.33 0.33 53 1004.3
20260906160033 19 87 3.2 11.3 0.00 0.33 0.33 53 1004.2
20260906154541 18 70 0.0 12.9 0.00 0.33 0.33 55 1004.2
20260906153015 18 96 0.0 4.8 0.00 0.33 0.33 55 1004.3
20260906151513 17 218 0.0 1.6 0.00 0.33 0.33 56 1004.4
20260906150106 17 229 0.0 0.0 0.00 0.33 0.33 55 1004.8
20260906144600 17 229 0.0 0.0 0.00 0.33 0.33 57 1004.7
20260906143110 18 229 0.0 0.0 0.00 0.33 0.33 52 1004.6
20260906141602 17 229 0.0 0.0 0.00 0.33 0.33 56 1004.4
20260906140100 16 229 0.0 0.0 0.00 0.33 0.33 58 1004.4
20260906134558 15 229 0.0 0.0 0.00 0.33 0.33 60 1004.4
20260906133058 15 229 0.0 0.0 0.00 0.33 0.33 59 1004.3
20260906131601 15 229 0.0 0.0 0.00 0.33 0.33 58 1004.2
20260906130050 14 229 0.0 0.0 0.00 0.33 0.33 59 1004.0
20260906124542 13 229 0.0 0.0 0.00 0.33 0.33 62 1003.9
20260906123044 13 229 0.0 0.0 0.00 0.33 0.33 62 1003.8
20260906121540 13 229 0.0 0.0 0.00 0.33 0.33 64 1003.8
20260906120040 12 229 0.0 0.0 0.00 0.33 0.33 66 1003.8
20260906114547 13 229 0.0 0.0 0.00 0.33 0.33 65 1003.8
20260906113039 12 229 0.0 0.0 0.00 0.33 0.33 67 1003.6
20260906111546 12 229 0.0 0.0 0.00 0.33 0.33 67 1003.4
20260906110020 12 229 0.0 0.0 0.00 0.33 0.33 66 1003.3
20260906104534 12 229 0.0 0.0 0.00 0.33 0.33 66 1003.3
20260906103004 12 229 0.0 0.0 0.00 0.33 0.33 67 1003.3
20260906101501 12 229 0.0 0.0 0.00 0.33 0.33 67 1003.1
20260906094546 12 229 0.0 0.0 0.00 0.33 0.33 66 1003.2
20260906093039 12 229 0.0 1.6 0.00 0.33 0.33 68 1003.4
20260906091537 12 229 0.0 0.0 0.00 0.33 0.33 69 1003.3
20260906090034 12 229 0.0 0.0 0.00 0.33 0.33 70 1003.1
20260906084532 12 229 0.0 0.0 0.00 0.33 0.33 71 1003.1
20260906083032 12 229 0.0 0.0 0.00 0.33 0.33 72 1003.0
20260906081531 12 229 0.0 0.0 0.00 0.33 0.33 71 1003.0
20260906080031 13 229 0.0 0.0 0.03 0.33 0.33 68 1003.0
20260906074520 11 229 0.0 0.0 0.05 0.33 0.33 76 1003.1
20260906073023 11 229 0.0 0.0 0.08 0.33 0.33 78 1003.2
20260906071517 10 229 0.0 0.0 0.10 0.33 0.33 82 1003.2
20260906070022 11 149 0.0 0.0 0.10 0.30 0.30 78 1003.2
20260906064517 11 149 0.0 1.6 0.13 0.28 0.28 79 1003.0
20260906063015 11 149 0.0 3.2 0.13 0.25 0.25 80 1003.0
20260906061514 11 149 0.0 3.2 0.13 0.23 0.23 81 1003.2
20260906060013 11 149 0.0 3.2 0.13 0.20 0.20 82 1002.9
20260906054625 11 149 0.0 1.6 0.10 0.15 0.15 82 1002.9
20260906053057 11 149 0.0 1.6 0.08 0.13 0.13 81 1003.1
20260906051555 12 149 0.0 1.6 0.08 0.10 0.10 82 1003.4
20260906044550 13 149 1.6 3.2 0.05 0.05 0.05 81 1003.8
20260906043045 13 149 0.0 3.2 0.05 0.05 0.05 79 1003.9
20260906041541 15 149 0.0 6.4 0.03 0.03 0.03 74 1004.0
20260906040045 17 149 0.0 12.9 0.00 0.00 0.00 62 1003.9
20260906034523 18 158 1.6 11.3 0.00 0.00 0.00 44 1003.1
20260906033019 18 161 0.0 0.0 0.00 0.00 0.00 40 1002.9
20260906031552 18 161 0.0 0.0 0.00 0.00 0.00 39 1002.8
20260906030015 18 161 0.0 0.0 0.00 0.00 0.00 39 1002.6
20260906024534 18 161 0.0 0.0 0.00 0.00 0.00 39 1002.5
20260906023014 18 161 0.0 0.0 0.00 0.00 0.00 38 1002.3
20260906021513 19 161 0.0 0.0 0.00 0.00 0.00 38 1002.2
20260906020013 19 161 0.0 4.8 0.00 0.00 0.00 37 1001.9
20260906014556 20 161 0.0 0.0 0.00 0.00 0.00 36 1001.7
20260906013059 20 161 0.0 0.0 0.00 0.00 0.00 35 1001.4
20260906011536 21 161 0.0 0.0 0.00 0.00 0.00 34 1001.4
20260906010046 21 161 0.0 0.0 0.00 0.00 0.00 34 1001.4
20260906004524 22 161 0.0 1.6 0.00 0.00 0.00 32 1001.7
20260906003024 22 161 0.0 4.8 0.00 0.00 0.00 32 1001.6
20260906001531 23 161 0.0 3.2 0.00 0.00 0.00 30 1001.5
20260906000024 23 161 0.0 4.8 0.00 0.00 0.00 31 1001.4
20260905234523 23 161 1.6 8.0 0.00 0.00 0.00 30 1001.1
20260905233022 23 161 0.0 9.7 0.00 0.00 0.00 30 1001.1
20260905231521 23 161 0.0 6.4 0.00 0.00 0.00 30 1001.0